[[{"header":{"parameterUnit":"m.s-1","parameterCategory":1,"la1":30.2992,"la2":30.254,"lo1":-89.0895,"lo2":-89.0443,"dy":0.0025,"dx":0.0025,"nx":19,"ny":19,"refTime":"2026-04-13T09:00:00:Z","depth":0,"parameterNumber":2,"parameterNumberName":"U-component_of_WINDS"},"data":[0,0,0,-2.1774,-2.1773,-2.1708,-2.1708,-2.1637,-2.1637,0,0,0,0,0,0,0,0,0,0,0,-2.1801,-2.1801,-2.1774,-2.1772,-2.1708,-2.1708,-2.1637,-2.1637,0,0,0,0,0,0,0,0,0,0,0,-2.1801,-2.1801,-2.1801,-2.1772,-2.1708,-2.1708,-2.1637,-2.1681,0,0,0,0,0,0,0,0,0,0,-2.1742,-2.1776,-2.1801,-2.1801,-2.1772,-2.1709,-2.1708,-2.1683,-2.1679,-2.1672,0,-2.1669,0,-2.1652,-2.1633,-2.1633,0,0,0,-2.1765,-2.178,-2.1755,-2.1801,-2.1771,-2.1709,-2.1735,-2.168,-2.1675,-2.1666,-2.1668,-2.1665,-2.1651,-2.1632,-2.1632,-2.1619,-2.162,0,0,-2.1769,-2.1794,-2.1759,-2.1752,-2.1765,-2.1737,-2.1733,-2.1677,-2.1681,-2.1668,-2.1663,-2.165,-2.1632,-2.1632,-2.1619,-2.1619,0,0,0,-2.1784,-2.1797,-2.1773,-2.1755,-2.1743,-2.1736,-2.1731,-2.1683,-2.1674,-2.1662,-2.1649,-2.1632,-2.1631,-2.1619,-2.1619,-2.1656,0,0,0,-2.1786,-2.1805,-2.1775,-2.1789,-2.1744,-2.1713,-2.1739,-2.1678,-2.167,-2.1649,-2.1632,-2.163,-2.1618,-2.1619,-2.1655,-2.1669,0,0,0,-2.1802,-2.1807,-2.1801,-2.1791,-2.1764,-2.1713,-2.17,-2.1675,-2.1663,-2.1633,-2.163,-2.1618,-2.1619,-2.1653,-2.1666,-2.1672,0,0,0,-2.1827,-2.1834,-2.1802,-2.1804,-2.1765,-2.1738,-2.17,-2.1678,-2.1657,-2.1631,-2.1618,-2.1619,-2.1653,-2.1665,-2.1671,-2.1681,-2.1688,0,0,-2.1849,-2.1837,-2.1837,-2.1807,-2.1791,-2.1745,-2.1735,-2.1691,-2.1665,-2.1636,-2.1635,-2.1655,-2.1666,-2.1672,-2.1721,-2.1727,0,0,0,-2.1852,-2.1852,-2.1843,-2.1825,-2.1793,-2.1767,-2.1723,-2.1707,-2.1681,-2.1656,-2.1659,-2.1665,-2.1667,-2.167,-2.1675,-2.1675,-2.1622,-2.1622,-2.1622,-2.1918,-2.1886,-2.1883,-2.1843,-2.1826,-2.1782,-2.1764,-2.1735,-2.1706,-2.1708,-2.1698,-2.1732,-2.1737,-2.174,-2.1741,-2.1702,-2.1702,-2.1702,-2.1702,-2.1947,-2.1941,-2.1905,-2.1889,-2.1855,-2.184,-2.1797,-2.1778,-2.1758,-2.1736,-2.1736,-2.1713,-2.1748,-2.1746,-2.1705,-2.1704,-2.1704,-2.1704,-2.1704,-2.1985,-2.1976,-2.1958,-2.193,-2.1911,-2.187,-2.1854,-2.1823,-2.1794,-2.1794,-2.178,-2.178,-2.1774,-2.179,-2.1791,-2.1791,-2.1791,-2.1791,-2.1791,-2.2031,-2.2009,-2.2,-2.1968,-2.1953,-2.1929,-2.1885,-2.1869,-2.1842,-2.1821,-2.182,-2.1791,-2.1758,-2.175,-2.1792,-2.1792,-2.1792,-2.1792,-2.1792,-2.2069,-2.2056,-2.2042,-2.2027,-2.1987,-2.197,-2.1932,-2.1901,-2.1883,-2.1876,-2.1847,-2.1829,-2.1813,-2.1809,-2.1802,-2.1855,-2.1855,-2.1855,-2.1855,-2.21,-2.2091,-2.2069,-2.2047,-2.2022,-2.1987,-2.197,-2.1937,-2.1899,-2.1886,-2.1874,-2.1862,-2.186,-2.1846,-2.1841,-2.1833,-2.1894,-2.1894,-2.1894,-2.2122,-2.2108,-2.2101,-2.2066,-2.2033,-2.2005,-2.1988,-2.1963,-2.1918,-2.1894,-2.1874,-2.1873,-2.1853,-2.1849,-2.1823,-2.1816,-2.1802,0,0]},{"header":{"parameterUnit":"m.s-1","parameterCategory":1,"la1":30.2992,"la2":30.254,"lo1":-89.0895,"lo2":-89.0443,"dy":0.0025,"dx":0.0025,"nx":19,"ny":19,"refTime":"2026-04-13T09:00:00:Z","depth":0,"parameterNumber":3,"parameterNumberName":"V-component_of_WINDS"},"data":[0,0,0,3.2787,3.2786,3.2743,3.2743,3.2682,3.2681,0,0,0,0,0,0,0,0,0,0,0,3.2797,3.2797,3.2787,3.2786,3.2743,3.2743,3.2682,3.2681,0,0,0,0,0,0,0,0,0,0,0,3.2798,3.2797,3.2797,3.2786,3.2743,3.2743,3.2682,3.2716,0,0,0,0,0,0,0,0,0,0,3.2759,3.2766,3.2797,3.2797,3.2786,3.2743,3.2743,3.2718,3.2714,3.2699,0,3.2687,0,3.2683,3.2677,3.2677,0,0,0,3.2787,3.277,3.2761,3.2796,3.2785,3.2744,3.2763,3.2716,3.2712,3.2694,3.2686,3.2684,3.2682,3.2677,3.2676,3.259,3.259,0,0,3.279,3.2788,3.2764,3.2758,3.2766,3.2764,3.2762,3.2714,3.2704,3.2686,3.2682,3.2681,3.2676,3.2676,3.259,3.259,0,0,0,3.2796,3.2789,3.2782,3.276,3.2753,3.2763,3.276,3.2706,3.2703,3.2682,3.268,3.2676,3.2675,3.2591,3.259,3.2567,0,0,0,3.2797,3.2793,3.2783,3.2781,3.2754,3.2729,3.2753,3.2707,3.2701,3.2681,3.2676,3.2674,3.2591,3.2591,3.2569,3.2555,0,0,0,3.2801,3.2794,3.2787,3.2781,3.2763,3.273,3.2725,3.2706,3.2701,3.2677,3.2674,3.2592,3.2591,3.257,3.2558,3.2533,0,0,0,3.2804,3.2765,3.2786,3.2742,3.2763,3.2717,3.2725,3.269,3.2667,3.2676,3.2591,3.259,3.2571,3.256,3.2535,3.2512,3.2502,0,0,3.2754,3.2759,3.2733,3.2751,3.27,3.2723,3.2668,3.2647,3.2646,3.2608,3.2606,3.2568,3.2558,3.2533,3.2448,3.2441,0,0,0,3.2716,3.2698,3.2685,3.2664,3.2649,3.2634,3.2623,3.2615,3.2584,3.2627,3.2552,3.2546,3.2532,3.2521,3.2514,3.2502,3.2585,3.2585,3.2585,3.2641,3.2644,3.2601,3.2598,3.2578,3.2567,3.2551,3.2539,3.2545,3.2527,3.2516,3.2464,3.2452,3.2447,3.2434,3.2504,3.2504,3.2504,3.2504,3.2568,3.2542,3.2554,3.2517,3.2519,3.2487,3.2476,3.2482,3.2452,3.2473,3.246,3.2482,3.2438,3.2427,3.2502,3.2502,3.2502,3.2503,3.2503,3.2519,3.2507,3.25,3.2471,3.2448,3.2446,3.2418,3.2421,3.2422,3.241,3.2398,3.2399,3.2399,3.2404,3.2404,3.2404,3.2404,3.2404,3.2403,3.2471,3.2464,3.2441,3.2423,3.2411,3.2394,3.2385,3.2372,3.2358,3.2362,3.2362,3.237,3.2434,3.245,3.2401,3.2401,3.2402,3.2402,3.2402,3.2395,3.2413,3.2377,3.2365,3.2345,3.2322,3.2327,3.2301,3.2291,3.2277,3.2288,3.2335,3.234,3.2345,3.2358,3.2288,3.2288,3.2288,3.2288,3.2354,3.2357,3.2322,3.2303,3.2284,3.2285,3.2243,3.2236,3.223,3.2223,3.2234,3.2252,3.2257,3.2259,3.2266,3.2278,3.2189,3.2189,3.2189,3.2307,3.2309,3.2274,3.2271,3.2256,3.2243,3.2204,3.218,3.2177,3.2185,3.2219,3.2223,3.2252,3.2261,3.2269,3.228,3.2302,0,0]}]]